AI4ZL Weather Reports


time (UTC)temp
F
wind
direction
speed
knots
gust
knots
rain 1hr
in
rain 24hr
in
rain mn
in
humidity
%
barometer
mb
20260904131257 82 0.0 0.0 0.00 0.00 0.00 91 1017.6
20260904130253 79 0.0 0.0 0.00 0.00 0.00 99 1017.6
20260904125249 76 0.0 0.0 0.00 0.00 0.00 99 1017.4
20260904124322 75 0.0 0.0 0.00 0.00 0.00 99 1017.2
20260904123238 75 0.0 0.0 0.00 0.00 0.00 99 1017.2
20260904122253 74 0.0 0.0 0.00 0.00 0.00 99 1017.0
20260904121247 74 0.0 0.0 0.00 0.00 0.00 99 1017.1
20260904120241 73 0.0 0.0 0.00 0.00 0.00 99 1017.0
20260904115235 73 0.0 0.0 0.00 0.00 0.00 99 1016.8
20260904114309 73 0.0 0.0 0.00 0.00 0.00 99 1016.8
20260904113242 73 0.0 0.0 0.00 0.00 0.00 99 1016.6
20260904112237 73 0.0 0.0 0.00 0.00 0.00 99 1016.5
20260904111232 73 0.0 0.0 0.00 0.00 0.00 99 1016.4
20260904110246 73 0.0 0.0 0.00 0.00 0.00 99 1016.4
20260904105242 73 0.0 0.0 0.00 0.00 0.00 99 1016.4
20260904104235 73 0.0 0.0 0.00 0.00 0.00 99 1016.4
20260904103250 74 0.0 0.0 0.00 0.00 0.00 99 1016.4
20260904102244 73 0.0 0.0 0.00 0.00 0.00 99 1016.3
20260904101259 74 0.0 0.0 0.00 0.00 0.00 99 1016.4
20260904100254 73 0.0 0.0 0.00 0.00 0.00 99 1016.3
20260904095249 74 0.0 0.0 0.00 0.00 0.00 99 1016.3
20260904094304 74 0.0 0.0 0.00 0.00 0.00 99 1016.2
20260904093239 74 0.0 0.0 0.00 0.00 0.00 99 1016.1
20260904092234 74 0.0 0.0 0.00 0.00 0.00 99 1016.1
20260904091249 75 0.0 0.0 0.00 0.00 0.00 99 1016.0
20260904090244 74 0.0 0.0 0.00 0.00 0.00 99 1015.9
20260904085238 74 0.0 0.0 0.00 0.00 0.00 99 1015.9
20260904084233 74 0.0 0.0 0.00 0.00 0.00 99 1015.7
20260904083308 74 0.0 0.0 0.00 0.00 0.00 99 1015.6
20260904082243 75 0.0 0.0 0.00 0.00 0.00 99 1015.6
20260904081237 75 0.0 0.0 0.00 0.00 0.00 98 1015.7
20260904080231 75 0.0 0.0 0.00 0.00 0.00 98 1015.7
20260904075246 75 0.0 0.0 0.00 0.00 0.00 98 1015.5
20260904074241 75 0.0 0.0 0.00 0.00 0.00 98 1015.6
20260904073235 76 0.0 0.0 0.00 0.00 0.00 98 1015.7
20260904072309 76 0.0 0.0 0.00 0.00 0.00 98 1015.7
20260904071244 75 0.0 0.0 0.00 0.00 0.00 98 1015.6
20260904070238 76 0.0 0.0 0.00 0.00 0.00 98 1015.8
20260904065233 76 0.0 0.0 0.00 0.00 0.00 98 1015.6
20260904064248 76 0.0 0.0 0.00 0.00 0.00 98 1015.8
20260904063243 76 0.0 0.0 0.00 0.00 0.00 98 1015.9
20260904062238 76 0.0 0.0 0.00 0.00 0.00 98 1015.8
20260904061233 76 0.0 0.0 0.00 0.00 0.00 98 1015.9
20260904060248 76 0.0 0.0 0.00 0.00 0.00 99 1015.9
20260904055242 77 0.0 0.0 0.00 0.00 0.00 99 1015.9
20260904054257 76 0.0 0.0 0.00 0.00 0.00 99 1015.9
20260904053232 76 0.0 0.0 0.00 0.00 0.00 99 1016.0
20260904052307 77 0.0 0.0 0.00 0.00 0.00 99 1016.1
20260904051242 76 0.0 0.0 0.00 0.00 0.00 98 1016.2
20260904050238 77 0.0 0.0 0.00 0.00 0.00 98 1016.2
20260904045235 77 0.0 0.0 0.00 0.00 0.00 98 1016.2
20260904044231 77 0.0 0.0 0.00 0.00 0.00 98 1016.1
20260904043246 77 0.0 0.0 0.00 0.00 0.00 98 1016.2
20260904042241 78 0.0 0.0 0.00 0.00 0.00 98 1016.1
20260904041235 78 0.0 0.0 0.00 0.00 0.00 98 1016.2
20260904040249 78 0.0 0.0 0.00 0.00 0.00 97 1016.4
20260904035244 78 0.0 0.0 0.00 0.00 0.00 97 1016.4
20260904034240 78 0.0 0.0 0.00 0.00 0.00 97 1016.3
20260904033238 78 0.0 0.0 0.00 0.00 0.00 96 1016.2
20260904032232 79 0.0 0.0 0.00 0.00 0.00 96 1016.3
20260904031247 79 0.0 0.0 0.00 0.00 0.00 96 1016.3
20260904030241 79 0.0 0.0 0.00 0.00 0.00 95 1016.4
20260904025236 79 0.0 0.0 0.00 0.00 0.00 94 1016.3
20260904024230 80 0.0 0.0 0.00 0.00 0.00 94 1016.3
20260904023244 80 0.0 0.0 0.00 0.00 0.00 94 1016.2
20260904022239 80 0.0 0.0 0.00 0.00 0.00 94 1016.1
20260904021234 80 0.0 0.0 0.00 0.00 0.00 93 1016.0
20260904020248 81 0.0 0.0 0.00 0.00 0.00 93 1015.8
20260904015243 81 0.0 0.0 0.00 0.00 0.00 93 1015.8
20260904014237 81 0.0 0.0 0.00 0.00 0.00 92 1015.8
20260904013232 82 329 0.0 0.9 0.00 0.00 0.00 91 1015.8
20260904012246 82 0.0 0.0 0.00 0.00 0.00 91 1015.8
20260904011240 83 0.0 0.0 0.00 0.00 0.00 89 1015.6
20260904010235 83 0.0 0.0 0.00 0.00 0.00 87 1015.5
20260904005249 84 0.0 0.0 0.00 0.00 0.00 86 1015.5
20260904004242 85 320 0.0 0.9 0.00 0.00 0.00 84 1015.4
20260904003237 86 0.0 0.0 0.00 0.00 0.00 82 1015.4
20260904002231 88 0.0 0.0 0.00 0.00 0.00 79 1015.4
20260904001245 89 0.0 0.0 0.00 0.00 0.00 76 1015.4
20260904000240 90 0.0 0.0 0.00 0.00 0.00 75 1015.4
20260903235233 92 9 0.0 0.9 0.00 0.00 0.00 73 1015.4
20260903234247 93 0.0 0.0 0.00 0.00 0.00 66 1015.2
20260903233241 95 13 0.0 0.9 0.00 0.00 0.00 63 1015.1
20260903232235 95 23 0.0 0.9 0.00 0.00 0.00 61 1015.0
20260903231249 97 24 0.0 0.9 0.00 0.00 0.00 60 1014.9
20260903230304 100 10 0.0 0.9 0.00 0.00 0.00 52 1014.9
20260903225239 98 295 0.0 0.9 0.00 0.00 0.00 53 1015.0
20260903224233 101 16 0.0 1.7 0.00 0.00 0.00 50 1015.1
20260903223248 100 356 0.0 0.9 0.00 0.00 0.00 51 1015.1
20260903222242 100 346 0.0 0.9 0.00 0.00 0.00 51 1015.1
20260903221258 99 34 0.9 1.7 0.00 0.00 0.00 51 1015.1
20260903220234 101 300 0.9 1.7 0.00 0.00 0.00 49 1015.1
20260903215230 100 272 0.0 1.7 0.00 0.00 0.00 48 1015.2
20260903214244 100 289 0.9 1.7 0.00 0.00 0.00 48 1015.1
20260903213238 99 278 0.0 0.9 0.00 0.00 0.00 52 1015.3
20260903212233 97 272 0.9 1.7 0.00 0.00 0.00 53 1015.5
20260903211247 98 235 0.9 2.6 0.00 0.00 0.00 53 1015.6
20260903210241 99 183 0.9 1.7 0.00 0.00 0.00 51 1015.6
20260903205237 96 23 0.9 0.9 0.00 0.00 0.00 57 1015.7
20260903204231 97 108 0.9 1.7 0.00 0.00 0.00 55 1015.7
20260903203306 100 118 0.9 1.7 0.00 0.00 0.00 50 1015.9
20260903202241 98 208 1.7 3.5 0.00 0.00 0.00 53 1016.0
20260903201237 100 158 1.7 3.5 0.00 0.00 0.00 51 1016.0
20260903200234 100 249 0.9 1.7 0.00 0.00 0.00 51 1016.1
20260903195310 99 275 1.7 3.5 0.00 0.00 0.00 49 1016.3
20260903194246 100 274 0.9 3.5 0.00 0.00 0.00 48 1016.3
20260903193300 99 249 1.7 7.0 0.00 0.00 0.00 49 1016.5
20260903192235 99 254 3.5 6.1 0.00 0.00 0.00 50 1016.5
20260903191231 98 253 2.6 6.1 0.00 0.00 0.00 49 1016.5
20260903190247 99 237 2.6 7.8 0.00 0.00 0.00 50 1016.6
20260903185243 98 256 1.7 3.5 0.00 0.00 0.00 51 1016.7
20260903184239 99 234 3.5 7.0 0.00 0.00 0.00 49 1016.9
20260903183255 99 271 0.9 2.6 0.00 0.00 0.00 49 1017.0
20260903182231 99 257 2.6 6.1 0.00 0.00 0.00 51 1017.1
20260903181247 98 257 3.5 7.0 0.00 0.00 0.00 50 1017.1
20260903180243 98 263 2.6 5.2 0.00 0.00 0.00 51 1017.2
20260903175239 98 256 3.5 6.1 0.00 0.00 0.00 51 1017.2
20260903174255 97 276 2.6 7.0 0.00 0.00 0.00 52 1017.5
20260903173231 97 255 2.6 5.2 0.00 0.00 0.00 54 1017.5
20260903172306 97 251 2.6 5.2 0.00 0.00 0.00 54 1017.7
20260903171301 99 288 0.9 3.5 0.00 0.00 0.00 54 1017.6
20260903170256 97 288 0.9 1.7 0.00 0.00 0.00 56 1017.6
20260903165231 98 255 0.9 3.5 0.00 0.00 0.00 55 1017.6
20260903164306 97 153 1.7 3.5 0.00 0.00 0.00 60 1017.9
20260903163239 96 134 1.7 5.2 0.00 0.00 0.00 60 1018.0
20260903162252 95 269 1.7 3.5 0.00 0.00 0.00 60 1018.0
20260903161249 95 246 0.9 2.6 0.00 0.00 0.00 60 1018.1
20260903160245 95 257 1.7 3.5 0.00 0.00 0.00 60 1018.2
20260903155301 94 111 0.9 1.7 0.00 0.00 0.00 62 1018.1
20260903154236 93 205 0.9 1.7 0.00 0.00 0.00 62 1018.2
20260903153252 93 209 1.7 2.6 0.00 0.00 0.00 62 1018.1
20260903152306 93 172 0.9 1.7 0.00 0.00 0.00 65 1018.2
20260903151239 92 187 0.9 1.7 0.00 0.00 0.00 65 1018.1
20260903150231 92 200 0.9 1.7 0.00 0.00 0.00 67 1018.3
20260903145242 91 146 0.9 1.7 0.00 0.00 0.00 69 1018.1
20260903144231 90 237 0.9 1.7 0.00 0.00 0.00 70 1018.3
20260903143238 90 183 0.9 1.7 0.00 0.00 0.00 70 1018.2
20260903142248 89 151 0.9 0.9 0.00 0.00 0.00 73 1018.2
20260903141303 88 252 0.9 1.7 0.00 0.00 0.00 74 1018.2
20260903140238 87 213 0.9 1.7 0.00 0.00 0.00 77 1018.2
20260903135252 86 177 0.9 1.7 0.00 0.00 0.00 77 1018.2
20260903134246 85 224 0.9 1.7 0.00 0.00 0.00 79 1018.3
20260903133239 84 0.0 0.0 0.00 0.00 0.00 81 1018.3
20260903132232 85 0.0 0.0 0.00 0.00 0.00 79 1018.3